Three Rivers, MI

5:20 PM EDT on April 30, 2017 (GMT -0400)
Three Rivers Municipal-Haines

Weather History for KHAI - March, 2012

Change the Weather History Date:

Tuesday, March 13, 2012

  Actual Average Record
Temperature  
Mean Temperature 54 °F -  
Max Temperature 62 °F 45 °F 78 °F (1990)
Min Temperature 47 °F 26 °F 1 °F (2014)
Degree Days  
Heating Degree Days 10    
Growing Degree Days 4 (Base 50)    
Moisture  
Dew Point 43 °F    
Average Humidity 69    
Maximum Humidity 97    
Minimum Humidity 30    
Precipitation  
Precipitation 0.00 in - - ()
Sea Level Pressure  
Sea Level Pressure 30.01 in    
Wind  
Wind Speed 8 mph (WSW)    
Max Wind Speed 20 mph    
Max Gust Speed 24 mph    
Visibility 9 miles    
Events      
Averages and records for this station are not official NWS values.
T = Trace of Precipitation, MM = Missing Value Source: NWS Daily Summary

Daily Weather History Graph

Daily Weather History Graph

Search for Another Location

Airport or City:

Trip Planner

Search our weather history database for the weather conditions in past years. The results will help you decide how hot, cold, wet, or windy it might be!

Date:

Astronomy

Mar. 13, 2012 Rise Set
Actual Time 7:56 AM EDT 7:47 PM EDT
Civil Twilight 7:28 AM EDT 8:15 PM EDT
Nautical Twilight 6:56 AM EDT 8:47 PM EDT
Astronomical Twilight 6:23 AM EDT 9:20 PM EDT
Moon 1:24 AM EDT (3/13) 11:02 AM EDT (3/13)
Length of Visible Light 12h 46m
Length of Day
11h 50m
Waning Gibbous, 66% of the Moon is Illuminated
Mar 13
Waning Gibbous
Mar 14
Last Quarter
Mar 22
New
Mar 30
First Quarter
Apr 6
Full

Hourly Weather History & Observations

Time (EDT) Temp. Dew Point Humidity Pressure Visibility Wind Dir Wind Speed Gust Speed Precip Events Conditions
12:14 AM 54.5 °F 50.4 °F 86% 29.88 in 10.0 mi WSW 4.6 mph - N/A   Mostly Cloudy
12:35 AM 53.8 °F 50.0 °F 87% 29.89 in 10.0 mi SW 4.6 mph - N/A   Scattered Clouds
12:54 AM 53.6 °F 50.0 °F 88% 29.89 in 10.0 mi WSW 4.6 mph - N/A   Mostly Cloudy
1:14 AM 52.7 °F 49.6 °F 89% 29.90 in 10.0 mi WSW 4.6 mph - N/A   Scattered Clouds
1:35 AM 53.1 °F 48.7 °F 85% 29.90 in 10.0 mi West 5.8 mph - N/A   Clear
1:54 AM 53.1 °F 48.6 °F 85% 29.90 in 10.0 mi WSW 6.9 mph - N/A   Clear
2:14 AM 52.7 °F 48.6 °F 86% 29.91 in 10.0 mi WSW 4.6 mph - N/A   Clear
2:35 AM 51.4 °F 48.2 °F 89% 29.92 in 10.0 mi SW 3.5 mph - N/A   Clear
2:54 AM 50.4 °F 48.0 °F 92% 29.92 in 10.0 mi SW 3.5 mph - N/A   Clear
3:15 AM 48.9 °F 47.5 °F 95% 29.93 in 10.0 mi SW 4.6 mph - N/A   Clear
3:34 AM 48.7 °F 47.3 °F 95% 29.94 in 10.0 mi SW 3.5 mph - N/A   Clear
3:54 AM 47.3 °F 46.6 °F 97% 29.94 in 10.0 mi SW 3.5 mph - N/A   Clear
4:15 AM 49.5 °F 48.2 °F 95% 29.94 in 10.0 mi SW 4.6 mph - N/A   Clear
4:34 AM 50.2 °F 48.2 °F 93% 29.94 in 10.0 mi WSW 6.9 mph - N/A   Clear
4:54 AM 50.0 °F 48.2 °F 94% 29.95 in 10.0 mi SW 6.9 mph - N/A   Clear
5:15 AM 50.0 °F 48.2 °F 94% 29.95 in 7.0 mi SW 4.6 mph - N/A   Clear
5:34 AM 49.5 °F 47.8 °F 94% 29.95 in 7.0 mi SW 5.8 mph - N/A   Clear
5:54 AM 49.6 °F 48.0 °F 94% 29.96 in 7.0 mi SW 5.8 mph - N/A   Clear
6:15 AM 49.6 °F 48.2 °F 95% 29.97 in 7.0 mi SW 6.9 mph - N/A   Clear
6:34 AM 49.1 °F 47.7 °F 95% 29.97 in 7.0 mi SW 5.8 mph - N/A   Clear
6:54 AM 48.4 °F 47.1 °F 95% 29.98 in 7.0 mi SW 5.8 mph - N/A   Clear
7:15 AM 49.1 °F 47.8 °F 95% 29.99 in 7.0 mi SW 5.8 mph - N/A   Scattered Clouds
7:34 AM 49.6 °F 48.2 °F 95% 30.00 in 7.0 mi SW 4.6 mph - N/A   Overcast
7:55 AM 50.0 °F 48.4 °F 94% 30.00 in 7.0 mi SW 8.1 mph - N/A   Overcast
8:14 AM 50.5 °F 48.4 °F 92% 30.00 in 7.0 mi SW 8.1 mph - N/A   Overcast
8:55 AM 51.1 °F 48.6 °F 91% 30.02 in 7.0 mi WSW 6.9 mph - N/A   Mostly Cloudy
9:14 AM 52.0 °F 49.1 °F 90% 30.03 in 7.0 mi WSW 6.9 mph - N/A   Clear
9:34 AM 52.9 °F 49.5 °F 88% 30.03 in 10.0 mi WSW 11.5 mph 16.1 mph N/A   Clear
9:55 AM 52.7 °F 49.3 °F 88% 30.04 in 7.0 mi West 11.5 mph - N/A   Mostly Cloudy
10:14 AM 52.9 °F 49.3 °F 88% 30.04 in 7.0 mi West 11.5 mph - N/A   Mostly Cloudy
10:34 AM 54.1 °F 49.5 °F 84% 30.04 in 7.0 mi West 12.7 mph 16.1 mph N/A   Scattered Clouds
10:55 AM 54.7 °F 49.1 °F 81% 30.05 in 10.0 mi West 11.5 mph - N/A   Scattered Clouds
11:14 AM 55.2 °F 49.5 °F 81% 30.05 in 10.0 mi West 11.5 mph - N/A   Scattered Clouds
11:35 AM 56.1 °F 48.2 °F 75% 30.06 in 10.0 mi WNW 13.8 mph - N/A   Clear
11:55 AM 57.2 °F 46.6 °F 68% 30.06 in 10.0 mi West 15.0 mph - N/A   Clear
12:14 PM 58.1 °F 44.4 °F 60% 30.06 in 10.0 mi West 11.5 mph - N/A   Clear
12:35 PM 59.2 °F 41.9 °F 53% 30.07 in 10.0 mi WNW 12.7 mph 18.4 mph N/A   Clear
12:54 PM 60.4 °F 40.3 °F 47% 30.07 in 10.0 mi West 16.1 mph 19.6 mph N/A   Clear
1:14 PM 60.8 °F 39.0 °F 45% 30.08 in 10.0 mi WNW 17.3 mph - N/A   Clear
1:35 PM 61.2 °F 37.6 °F 42% 30.08 in 10.0 mi NW 10.4 mph - N/A   Clear
1:54 PM 61.9 °F 37.6 °F 41% 30.08 in 10.0 mi West 15.0 mph 21.9 mph N/A   Clear
2:14 PM 61.9 °F 35.4 °F 37% 30.08 in 10.0 mi West 19.6 mph 24.2 mph N/A   Clear
2:34 PM 61.5 °F 32.9 °F 34% 30.08 in 10.0 mi West 19.6 mph - N/A   Clear
2:54 PM 62.1 °F 32.5 °F 33% 30.07 in 10.0 mi West 17.3 mph 23.0 mph N/A   Clear
3:15 PM 61.7 °F 29.7 °F 30% 30.07 in 10.0 mi WNW 16.1 mph 20.7 mph N/A   Clear
3:34 PM 61.7 °F 29.5 °F 30% 30.07 in 10.0 mi West 16.1 mph 21.9 mph N/A   Clear
3:54 PM 61.7 °F 30.4 °F 31% 30.08 in 10.0 mi West 15.0 mph 21.9 mph N/A   Clear
4:14 PM 61.5 °F 30.9 °F 32% 30.08 in 10.0 mi West 12.7 mph 19.6 mph N/A   Clear
4:34 PM 61.9 °F 31.1 °F 31% 30.08 in 10.0 mi West 13.8 mph 18.4 mph N/A   Clear
4:55 PM 61.7 °F 30.6 °F 31% 30.08 in 10.0 mi WNW 9.2 mph - N/A   Clear
5:14 PM 61.7 °F 30.6 °F 31% 30.08 in 10.0 mi WNW 11.5 mph 19.6 mph N/A   Clear
5:34 PM 61.3 °F 30.0 °F 31% 30.08 in 10.0 mi West 13.8 mph - N/A   Clear
5:55 PM 60.8 °F 31.1 °F 33% 30.08 in 10.0 mi WNW 8.1 mph - N/A   Clear
6:14 PM 60.3 °F 29.8 °F 32% 30.09 in 10.0 mi WNW 9.2 mph - N/A   Clear
6:55 PM 58.6 °F 29.7 °F 33% 30.09 in 10.0 mi WNW 6.9 mph - N/A   Clear
7:14 PM 57.4 °F 30.7 °F 36% 30.10 in 10.0 mi WNW 4.6 mph - N/A   Clear
7:35 PM 56.1 °F 30.6 °F 38% 30.10 in 10.0 mi NW 3.5 mph - N/A   Clear
7:54 PM 54.0 °F 30.2 °F 40% 30.10 in 10.0 mi WNW 3.5 mph - N/A   Clear
8:14 PM 52.3 °F 30.4 °F 43% 30.10 in 10.0 mi Calm Calm - N/A   Clear
8:34 PM 51.6 °F 29.3 °F 42% 30.10 in 10.0 mi Calm Calm - N/A   Clear
8:54 PM 48.0 °F 31.8 °F 54% 30.10 in 10.0 mi Calm Calm - N/A   Clear
9:15 PM 47.7 °F 30.4 °F 51% 30.11 in 10.0 mi Calm Calm - N/A   Clear
9:34 PM 45.9 °F 33.8 °F 63% 30.11 in 10.0 mi Calm Calm - N/A   Clear
9:54 PM 45.7 °F 35.1 °F 66% 30.12 in 10.0 mi Calm Calm - N/A   Clear
10:14 PM 44.6 °F 34.5 °F 68% 30.12 in 10.0 mi Calm Calm - N/A   Clear
10:34 PM 43.7 °F 36.9 °F 77% 30.12 in 10.0 mi Calm Calm - N/A   Clear
10:54 PM 42.8 °F 34.5 °F 73% 30.12 in 10.0 mi Calm Calm - N/A   Clear
11:14 PM 42.1 °F 34.9 °F 76% 30.11 in 10.0 mi Calm Calm - N/A   Clear
11:54 PM 41.7 °F 36.5 °F 82% 30.12 in 10.0 mi Calm Calm - N/A   Clear